CW2157 Weather Reports


Display with metric or nautical units.
time (UTC)temp
F
wind
direction
speed
MPH
gust
MPH
rain 1hr
in
rain 24hr
in
rain mn
in
humidity
%
barometer
mb
20260904190705 89 181 3.0 3.0 0.00 0.32 0.32 63 1010.7
20260904190204 89 198 2.0 5.0 0.00 0.32 0.32 66 1010.8
20260904185705 89 232 3.0 5.0 0.00 0.32 0.32 67 1010.8
20260904185205 89 203 4.0 7.0 0.00 0.32 0.32 64 1010.9
20260904184704 89 228 1.0 8.0 0.00 0.32 0.32 64 1011.0
20260904184204 89 253 2.0 7.0 0.00 0.32 0.32 62 1011.1
20260904183704 89 291 3.0 7.0 0.00 0.32 0.32 65 1011.1
20260904183204 89 234 3.0 6.0 0.00 0.32 0.32 63 1011.2
20260904182704 89 223 1.0 3.0 0.00 0.32 0.32 68 1011.2
20260904182204 89 249 2.0 3.0 0.00 0.32 0.32 67 1011.2
20260904181704 88 221 2.0 7.0 0.00 0.32 0.32 67 1011.3
20260904181204 88 247 2.0 8.0 0.00 0.32 0.32 67 1011.4
20260904180204 88 235 1.0 3.0 0.00 0.32 0.32 67 1011.4
20260904175705 88 267 2.0 8.0 0.00 0.32 0.32 66 1011.4
20260904175205 87 350 2.0 5.0 0.00 0.32 0.32 67 1011.5
20260904174704 87 267 2.0 9.0 0.00 0.32 0.32 68 1011.5
20260904174204 87 356 3.0 6.0 0.00 0.32 0.32 66 1011.6
20260904173204 87 334 2.0 5.0 0.00 0.32 0.32 68 1011.6
20260904172704 87 343 2.0 8.0 0.00 0.32 0.32 67 1011.6
20260904171704 87 265 2.0 3.0 0.00 0.32 0.32 67 1011.6
20260904170704 86 267 3.0 8.0 0.00 0.32 0.32 69 1011.7
20260904170204 86 278 2.0 7.0 0.00 0.32 0.32 69 1011.8
20260904165704 86 227 3.0 5.0 0.00 0.32 0.32 68 1011.9
20260904165205 86 352 2.0 3.0 0.00 0.32 0.32 70 1012.0
20260904164704 85 223 2.0 6.0 0.00 0.32 0.32 70 1012.0
20260904164205 85 296 4.0 8.0 0.00 0.32 0.32 69 1012.0
20260904163704 85 345 2.0 8.0 0.00 0.32 0.32 69 1012.0
20260904162704 85 2 5.0 8.0 0.00 0.32 0.32 67 1012.1
20260904162204 85 10 3.0 7.0 0.00 0.32 0.32 67 1012.1
20260904161204 85 283 5.0 9.0 0.00 0.32 0.32 71 1012.2
20260904160704 85 25 3.0 8.0 0.00 0.32 0.32 70 1012.2
20260904160205 85 39 3.0 9.0 0.00 0.32 0.32 71 1012.3
20260904155205 85 350 5.0 10.0 0.00 0.32 0.32 67 1012.3
20260904154704 85 318 6.0 12.0 0.00 0.32 0.32 70 1012.3
20260904154204 84 356 3.0 6.0 0.00 0.32 0.32 70 1012.3
20260904153205 84 355 3.0 10.0 0.00 0.32 0.32 72 1012.2
20260904152704 84 15 2.0 9.0 0.00 0.32 0.32 71 1012.2
20260904152204 84 351 7.0 12.0 0.00 0.32 0.32 68 1012.3
20260904150704 84 0 3.0 8.0 0.00 0.32 0.32 72 1012.3
20260904145704 84 347 2.0 8.0 0.00 0.32 0.32 76 1012.4
20260904145204 83 298 2.0 5.0 0.00 0.32 0.32 77 1012.6
20260904144704 83 337 2.0 3.0 0.00 0.32 0.32 77 1012.7
20260904143204 82 350 3.0 7.0 0.00 0.32 0.32 77 1012.4
20260904142704 82 6 2.0 6.0 0.00 0.32 0.32 77 1012.4
20260904142205 82 355 2.0 6.0 0.00 0.32 0.32 78 1012.5
20260904141704 82 333 4.0 8.0 0.00 0.32 0.32 76 1012.5
20260904141204 82 336 6.0 12.0 0.00 0.32 0.32 76 1012.5
20260904140703 82 318 3.0 9.0 0.00 0.32 0.32 79 1012.3
20260904135704 81 318 2.0 6.0 0.00 0.32 0.32 82 1012.4
20260904134704 81 243 3.0 8.0 0.00 0.32 0.32 83 1012.4
20260904133204 80 314 1.0 3.0 0.00 0.32 0.32 86 1012.2
20260904132703 79 226 3.0 8.0 0.00 0.32 0.32 85 1012.2
20260904131704 78 235 3.0 5.0 0.00 0.32 0.32 87 1012.3
20260904131204 78 338 2.0 7.0 0.00 0.32 0.32 89 1012.1
20260904130704 78 282 2.0 6.0 0.00 0.32 0.32 90 1012.0
20260904125704 77 229 3.0 7.0 0.00 0.32 0.32 90 1012.3
20260904125204 77 255 2.0 7.0 0.00 0.32 0.32 91 1012.5
20260904124705 76 193 2.0 8.0 0.00 0.32 0.32 92 1012.5
20260904124204 76 286 2.0 7.0 0.00 0.32 0.32 93 1012.4
20260904123704 76 286 3.0 5.0 0.00 0.32 0.32 94 1012.4
20260904123204 75 304 2.0 6.0 0.00 0.32 0.32 94 1012.4
20260904122704 75 184 3.0 7.0 0.00 0.32 0.32 94 1012.4
20260904122204 75 351 1.0 8.0 0.00 0.32 0.32 94 1012.4
20260904121704 75 211 2.0 6.0 0.00 0.32 0.32 95 1012.5
20260904121204 74 294 2.0 6.0 0.00 0.32 0.32 95 1012.3
20260904120704 74 298 3.0 8.0 0.00 0.32 0.32 95 1012.4
20260904120204 74 224 2.0 3.0 0.00 0.32 0.32 94 1012.4
20260904115705 74 230 2.0 6.0 0.00 0.32 0.32 94 1012.3
20260904114704 73 260 1.0 3.0 0.00 0.32 0.32 94 1012.3
20260904114204 73 321 1.0 3.0 0.00 0.32 0.32 94 1012.2
20260904113704 73 237 2.0 5.0 0.00 0.32 0.32 94 1012.2
20260904113204 73 234 3.0 7.0 0.00 0.32 0.32 94 1012.3
20260904112704 73 271 2.0 5.0 0.00 0.32 0.32 94 1012.4
20260904112204 73 224 2.0 3.0 0.00 0.32 0.32 94 1012.6
20260904111704 73 237 0.0 2.0 0.00 0.32 0.32 94 1012.6
20260904110704 73 320 1.0 5.0 0.00 0.32 0.32 94 1012.2
20260904110204 73 243 1.0 3.0 0.00 0.32 0.32 94 1012.0
20260904105704 73 298 1.0 3.0 0.00 0.32 0.32 94 1012.1
20260904105204 73 290 1.0 3.0 0.00 0.32 0.32 94 1012.2
20260904104704 73 233 1.0 2.0 0.00 0.32 0.32 94 1012.0
20260904103704 74 323 0.0 3.0 0.00 0.32 0.32 94 1012.2
20260904103203 74 281 1.0 3.0 0.00 0.32 0.32 94 1012.1
20260904102204 73 210 1.0 2.0 0.00 0.32 0.32 94 1011.9
20260904101704 73 314 1.0 2.0 0.00 0.32 0.32 94 1011.7
20260904101204 73 314 0.0 2.0 0.00 0.32 0.32 94 1011.7
20260904100704 73 314 0.0 2.0 0.00 0.32 0.32 94 1011.7
20260904100204 73 298 0.0 2.0 0.00 0.32 0.32 94 1011.4
20260904095704 73 304 0.0 0.0 0.00 0.32 0.32 94 1011.4
20260904095205 73 291 0.0 0.0 0.00 0.32 0.32 94 1011.4
20260904094706 73 331 0.0 0.0 0.00 0.32 0.32 94 1011.3
20260904094205 74 234 0.0 0.0 0.00 0.32 0.32 94 1011.4
20260904093206 74 333 1.0 3.0 0.00 0.32 0.32 94 1011.3
20260904092705 74 327 1.0 2.0 0.00 0.32 0.32 94 1011.2
20260904092205 74 321 1.0 2.0 0.00 0.32 0.32 94 1011.1
20260904091705 74 294 0.0 3.0 0.00 0.32 0.32 94 1011.1
20260904091206 74 254 2.0 3.0 0.00 0.32 0.32 94 1011.2
20260904090705 74 316 0.0 3.0 0.00 0.32 0.32 94 1011.3
20260904090205 74 319 1.0 2.0 0.00 0.32 0.32 94 1011.3
20260904085705 74 314 0.0 2.0 0.00 0.32 0.32 94 1011.3
20260904085206 74 286 1.0 3.0 0.00 0.32 0.32 94 1011.3
20260904083706 74 294 1.0 2.0 0.00 0.32 0.32 94 1011.5
20260904083205 74 312 1.0 3.0 0.00 0.32 0.32 94 1011.5
20260904082706 74 261 3.0 8.0 0.00 0.32 0.32 94 1011.7
20260904082205 74 236 7.0 12.0 0.00 0.32 0.32 94 1011.6
20260904081705 74 225 8.0 9.0 0.00 0.32 0.32 94 1011.7
20260904081205 74 228 8.0 10.0 0.00 0.32 0.32 94 1011.6
20260904080706 74 225 6.0 8.0 0.00 0.32 0.32 94 1011.6
20260904080205 74 229 6.0 8.0 0.00 0.32 0.32 94 1011.7
20260904075705 74 232 5.0 7.0 0.00 0.32 0.32 94 1011.8
20260904075206 74 276 1.0 2.0 0.00 0.32 0.32 94 1011.8
20260904074705 74 309 1.0 2.0 0.00 0.32 0.32 94 1011.6
20260904074206 74 265 1.0 2.0 0.00 0.32 0.32 94 1011.6
20260904073706 74 269 2.0 3.0 0.00 0.32 0.32 94 1011.6
20260904072706 74 212 3.0 5.0 0.00 0.32 0.32 94 1011.6
20260904072206 74 200 3.0 5.0 0.01 0.32 0.32 94 1011.7
20260904071705 74 248 2.0 6.0 0.01 0.32 0.32 94 1011.8
20260904071206 74 242 3.0 6.0 0.01 0.32 0.32 94 1011.8
20260904070706 74 230 5.0 7.0 0.01 0.32 0.32 93 1011.7
20260904070206 74 241 3.0 8.0 0.01 0.32 0.32 93 1011.8
20260904065705 74 234 6.0 7.0 0.01 0.32 0.32 93 1011.9
20260904063705 74 215 8.0 10.0 0.04 0.32 0.32 93 1011.9
20260904063205 74 226 6.0 10.0 0.04 0.32 0.32 93 1011.7
20260904062205 74 205 7.0 12.0 0.04 0.31 0.31 93 1011.7
20260904060706 74 186 6.0 10.0 0.06 0.31 0.31 92 1011.4
20260904060206 74 189 3.0 7.0 0.07 0.31 0.31 92 1011.0
20260904055705 74 190 5.0 7.0 0.09 0.31 0.31 92 1010.9
20260904055205 74 170 5.0 6.0 0.11 0.30 0.30 92 1011.3
20260904054705 74 193 2.0 5.0 0.13 0.29 0.29 92 1011.5
20260904054205 74 186 5.0 9.0 0.19 0.28 0.28 92 1011.5
20260904053706 74 130 5.0 9.0 0.28 0.28 0.28 92 1011.3
20260904053205 74 121 5.0 8.0 0.28 0.28 0.28 92 1011.7
20260904052705 74 111 5.0 7.0 0.28 0.28 0.28 93 1012.0
20260904052205 74 126 5.0 6.0 0.27 0.27 0.27 92 1012.4
20260904051706 74 175 1.0 3.0 0.26 0.26 0.26 90 1012.9
20260904051206 74 266 0.0 1.0 0.26 0.26 0.26 90 1013.5
20260904050705 74 298 3.0 6.0 0.25 0.25 0.25 90 1013.8
20260904050205 74 288 5.0 12.0 0.24 0.24 0.24 90 1013.9
20260904045705 74 241 3.0 12.0 0.22 0.22 0.22 89 1014.1
20260904045205 75 227 9.0 20.0 0.19 0.19 0.19 88 1014.2
20260904044705 76 230 12.0 26.0 0.16 0.16 0.16 87 1014.4
20260904044206 77 207 13.0 23.0 0.09 0.09 0.09 85 1014.3
20260904043706 79 229 16.0 35.0 0.00 0.00 0.00 83 1014.0
20260904043206 80 254 6.0 20.0 0.00 0.00 0.00 92 1013.6
20260904042706 80 259 8.0 15.0 0.00 0.00 0.00 92 1012.4
20260904042205 80 234 10.0 15.0 0.00 0.00 0.00 92 1011.8
20260904041705 80 229 7.0 10.0 0.00 0.00 0.00 92 1011.7
20260904041205 80 237 6.0 10.0 0.00 0.00 0.00 92 1011.3
20260904040705 80 226 6.0 8.0 0.00 0.00 0.00 92 1011.2
20260904040205 80 199 2.0 3.0 0.00 0.00 0.00 93 1010.6
20260904035705 80 152 1.0 3.0 0.00 0.00 0.00 92 1010.4
20260904035205 80 216 1.0 3.0 0.00 0.00 0.00 91 1010.5
20260904034706 80 216 2.0 3.0 0.00 0.00 0.00 91 1010.9
20260904033705 80 216 1.0 2.0 0.00 0.00 0.00 91 1011.3
20260904033207 80 216 3.0 3.0 0.00 0.00 0.00 91 1011.4
20260904032705 80 216 2.0 3.0 0.00 0.00 0.00 91 1011.5
20260904032205 80 206 2.0 5.0 0.00 0.00 0.00 91 1011.5
20260904031705 80 218 3.0 5.0 0.00 0.00 0.00 91 1011.6
20260904031205 80 205 2.0 3.0 0.00 0.00 0.00 91 1011.6
20260904030706 80 169 1.0 3.0 0.00 0.00 0.00 91 1011.6
20260904030205 80 182 2.0 5.0 0.00 0.00 0.00 91 1011.7
20260904025705 80 206 3.0 6.0 0.00 0.00 0.00 91 1011.7
20260904024705 80 209 4.0 6.0 0.00 0.00 0.00 91 1011.8
20260904024205 81 216 3.0 6.0 0.00 0.00 0.00 91 1011.9
20260904023705 81 212 6.0 8.0 0.00 0.00 0.00 91 1011.9
20260904023205 81 213 5.0 7.0 0.00 0.00 0.00 91 1011.9
20260904022205 81 210 6.0 7.0 0.00 0.00 0.00 91 1012.0
20260904021205 81 219 6.0 8.0 0.00 0.00 0.00 90 1012.1
20260904020705 81 209 5.0 7.0 0.00 0.00 0.00 90 1012.0
20260904020205 81 207 4.0 5.0 0.00 0.00 0.00 91 1011.9
20260904015705 81 192 3.0 7.0 0.00 0.00 0.00 91 1011.7
20260904015205 81 189 5.0 7.0 0.00 0.00 0.00 91 1011.6
20260904014205 81 196 3.0 5.0 0.00 0.00 0.00 91 1011.7
20260904013705 81 176 2.0 3.0 0.00 0.00 0.00 91 1011.9
20260904013205 80 183 2.0 3.0 0.00 0.00 0.00 90 1011.9
20260904012705 80 157 2.0 3.0 0.00 0.00 0.00 89 1012.0
20260904012205 80 175 3.0 5.0 0.00 0.00 0.00 89 1012.1
20260904011705 80 196 5.0 7.0 0.00 0.00 0.00 89 1012.2
20260904011205 80 206 5.0 8.0 0.00 0.00 0.00 89 1012.3
20260904010705 81 203 6.0 9.0 0.00 0.00 0.00 89 1012.4
20260904010205 81 204 5.0 7.0 0.00 0.00 0.00 89 1012.4
20260904005706 81 205 5.0 6.0 0.00 0.00 0.00 88 1012.5
20260904005205 81 200 4.0 7.0 0.00 0.00 0.00 88 1012.6
20260904004705 81 194 5.0 7.0 0.00 0.00 0.00 88 1012.6
20260904003205 81 224 7.0 8.0 0.00 0.00 0.00 88 1012.6
20260904002705 81 224 7.0 8.0 0.00 0.00 0.00 88 1012.5
20260904002205 81 231 7.0 9.0 0.00 0.00 0.00 87 1012.5
20260904001705 81 225 7.0 9.0 0.00 0.00 0.00 87 1012.4
20260904001205 81 226 7.0 9.0 0.00 0.00 0.00 87 1012.2
20260904000705 82 231 7.0 9.0 0.00 0.00 0.00 87 1012.2
20260904000206 82 224 8.0 9.0 0.00 0.00 0.00 87 1012.0
20260903235706 82 220 7.0 9.0 0.00 0.00 0.00 86 1011.9
20260903235205 82 219 7.0 9.0 0.00 0.00 0.00 86 1011.9
20260903234205 82 207 6.0 8.0 0.00 0.00 0.00 85 1011.8
20260903233705 83 205 7.0 9.0 0.00 0.00 0.00 84 1011.7
20260903233205 83 192 5.0 8.0 0.00 0.00 0.00 84 1011.8
20260903232705 83 213 7.0 9.0 0.00 0.00 0.00 84 1011.8
20260903232205 83 209 6.0 7.0 0.00 0.00 0.00 83 1011.8
20260903231705 83 217 6.0 8.0 0.00 0.00 0.00 83 1011.9
20260903230205 84 203 6.0 8.0 0.00 0.00 0.00 81 1011.8
20260903225705 84 210 7.0 9.0 0.00 0.00 0.00 81 1011.8
20260903225206 85 212 8.0 9.0 0.00 0.00 0.00 81 1011.8
20260903224704 85 218 7.0 12.0 0.00 0.00 0.00 81 1011.8
20260903224205 85 208 7.0 9.0 0.00 0.00 0.00 80 1011.8
20260903223705 85 206 7.0 8.0 0.00 0.00 0.00 80 1011.7
20260903223205 85 217 6.0 10.0 0.00 0.00 0.00 80 1011.7
20260903222705 85 207 6.0 9.0 0.00 0.00 0.00 80 1011.6
20260903221705 86 220 7.0 9.0 0.00 0.00 0.00 79 1011.7
20260903221205 86 209 6.0 9.0 0.00 0.00 0.00 79 1011.6
20260903220206 86 212 7.0 10.0 0.00 0.00 0.00 79 1011.7
20260903215705 86 202 7.0 9.0 0.00 0.00 0.00 78 1011.6
20260903214705 87 203 8.0 12.0 0.00 0.00 0.00 76 1011.7
20260903214205 87 203 8.0 12.0 0.00 0.00 0.00 76 1011.7
20260903213705 87 211 6.0 10.0 0.00 0.00 0.00 74 1011.7
20260903213205 88 204 9.0 12.0 0.00 0.00 0.00 75 1011.8
20260903212705 88 210 9.0 13.0 0.00 0.00 0.00 75 1011.9
20260903212205 88 193 7.0 10.0 0.00 0.00 0.00 74 1011.9
20260903211706 89 208 6.0 8.0 0.00 0.00 0.00 73 1012.0
20260903211205 89 196 7.0 10.0 0.00 0.00 0.00 73 1012.0
20260903210705 89 189 6.0 9.0 0.00 0.00 0.00 73 1012.0
20260903210205 90 208 6.0 8.0 0.00 0.00 0.00 73 1012.1
20260903205705 90 194 5.0 10.0 0.00 0.00 0.00 73 1012.0
20260903204705 90 183 9.0 12.0 0.00 0.00 0.00 73 1012.0
20260903204205 90 198 8.0 13.0 0.00 0.00 0.00 74 1012.0
20260903203705 90 175 6.0 10.0 0.00 0.00 0.00 73 1012.0
20260903203206 90 191 6.0 9.0 0.00 0.00 0.00 73 1012.1
20260903202705 90 197 7.0 9.0 0.00 0.00 0.00 73 1012.2
20260903202205 90 223 7.0 9.0 0.00 0.00 0.00 72 1012.3
20260903201705 90 216 9.0 12.0 0.00 0.00 0.00 72 1012.3
20260903201205 90 216 8.0 12.0 0.00 0.00 0.00 72 1012.5
20260903200705 89 228 7.0 9.0 0.00 0.00 0.00 75 1012.6
20260903200205 89 217 6.0 8.0 0.00 0.00 0.00 76 1012.8
20260903195704 89 224 6.0 8.0 0.00 0.00 0.00 73 1012.9
20260903195205 89 224 6.0 8.0 0.00 0.00 0.00 73 1012.9
20260903194705 90 235 7.0 12.0 0.00 0.00 0.00 72 1012.9
20260903193705 90 217 9.0 12.0 0.00 0.00 0.00 75 1012.9
20260903193205 90 207 10.0 13.0 0.00 0.00 0.00 76 1012.8
20260903192705 90 198 7.0 13.0 0.00 0.00 0.00 74 1012.9
20260903192205 90 217 9.0 12.0 0.00 0.00 0.00 78 1013.0
20260903191705 89 222 10.0 13.0 0.00 0.00 0.00 74 1013.1
20260903191205 89 209 7.0 10.0 0.00 0.00 0.00 73 1013.1